Back to catalog

OPS 4682 DEB

AlivePO
NORAD 38382·DEBRIS·🇺🇸 United States

Launched Apr 3, 1965 from Vandenberg Space Force Base

Loading…

Next Passes (next 24 hours)

TLE

FreshSource: Space-Track

Epoch: Sep 14, 2026, 00:47 UTC

1 38382U 65027CK  26257.03303432  .00000011  00000-0  13128-4 0  9995
2 38382  90.2573  11.0144 0023021 294.1574  65.7140 12.96788600 73946

Track OPS 4682 DEB in real time with AllMySat

Download on the App Store